[[{"header":{"parameterUnit":"m.s-1","parameterCategory":1,"la1":30.2991,"la2":30.254,"lo1":-89.0895,"lo2":-89.0444,"dy":0.0017,"dx":0.0017,"nx":28,"ny":28,"refTime":"2024-05-26T09:00:00:Z","depth":0,"parameterNumber":2,"parameterNumberName":"U-component_of_WINDS"},"data":[0,0,0,0,0,0,0,0,0,0,0,0,0,0,0,0,0,0,0,0,0,0,0,0,0,0,0,0,0,0,0,0,0,0,0,0,0,0,0,0,0,0,0,0,0,0,0,0,0,0,0,0,0,0,0,0,0,0,1.3162,1.3163,0,1.3251,1.3252,1.3253,1.3263,1.3262,1.3261,1.3261,1.3352,1.3356,1.3359,0,0,0,0,0,0,0,0,0,0,0,0,0,1.2999,1.3002,1.3162,1.3163,1.3164,1.3251,1.3252,1.3254,1.3263,1.3262,1.3261,1.326,1.3351,1.3355,1.3359,0,0,0,0,0,0,0,0,0,0,0,0,0,1.3077,1.3003,1.3162,1.318,1.3182,1.3251,1.3252,1.3254,1.3264,1.3262,1.3261,1.326,1.335,1.3355,1.336,1.3417,0,0,1.3375,1.3377,0,0,0,0,0,0,0,0,1.3073,1.3083,1.3176,1.3178,1.3181,1.3245,1.3229,1.3309,1.3264,1.3233,1.326,1.3259,1.3318,1.3325,1.3345,1.3421,1.3425,1.3375,1.3378,1.338,1.3382,0,0,0,0,0,0,0,1.3067,1.308,1.3197,1.3177,1.3181,1.3183,1.3192,1.3244,1.3282,1.3235,1.3236,1.3247,1.3319,1.334,1.3347,1.3427,1.3375,1.3379,1.3382,1.3384,1.3553,1.3554,0,0,0,0,0,0,1.3059,1.3075,1.3195,1.32,1.3123,1.3187,1.3198,1.3226,1.3281,1.3288,1.3248,1.3247,1.3332,1.3341,1.335,1.342,1.338,1.3385,1.3388,1.3551,1.3553,1.3555,0,0,0,0,0,0,1.3055,1.3069,1.3191,1.3138,1.3153,1.3191,1.3223,1.3228,1.3249,1.3291,1.3297,1.3262,1.3332,1.3343,1.34,1.3423,1.3387,1.3392,1.355,1.3552,1.3554,1.356,0,0,0,0,0,0,1.3051,1.3068,1.3091,1.3138,1.3156,1.3239,1.3224,1.3231,1.3258,1.3257,1.3306,1.3313,1.3332,1.3393,1.3405,1.3429,1.3395,1.3548,1.3551,1.3553,1.3558,1.3562,1.3566,0,0,0,0,0,1.3045,1.3089,1.3092,1.3106,1.3185,1.3241,1.3251,1.3271,1.326,1.3282,1.3308,1.3311,1.3419,1.3398,1.3412,1.3439,1.3546,1.355,1.3553,1.3556,1.3561,1.3566,0,0,0,0,0,0,1.3044,1.3096,1.3099,1.316,1.3196,1.3242,1.3271,1.3277,1.3316,1.3314,1.3338,1.3349,1.3404,1.3427,1.3403,1.3496,1.3481,1.3488,1.3479,1.3484,1.3488,1.3481,1.34,0,0,0,0,0,1.3051,1.3092,1.3135,1.3185,1.3202,1.3234,1.3259,1.3271,1.3309,1.3324,1.3354,1.3391,1.3433,1.346,1.3501,1.3561,1.3571,1.3586,1.359,1.3593,1.3598,1.363,1.3637,1.3566,1.3566,1.3566,0,0,1.3066,1.3099,1.3123,1.3185,1.3214,1.3255,1.3246,1.3291,1.3321,1.3331,1.3386,1.3409,1.3451,1.351,1.3537,1.3531,1.362,1.3598,1.36,1.3603,1.3634,1.3641,1.3647,1.3568,1.3568,1.3568,0,0,1.3113,1.3143,1.3187,1.3216,1.326,1.328,1.329,1.3336,1.3351,1.3407,1.3414,1.3451,1.3523,1.3552,1.3576,1.3633,1.3637,1.3646,1.3667,1.3698,1.3703,1.3708,1.3727,1.3734,1.3651,1.3651,1.3651,0,1.3126,1.3188,1.3209,1.3253,1.3279,1.3289,1.3333,1.336,1.3415,1.3433,1.3425,1.3515,1.3544,1.3608,1.3622,1.3642,1.3654,1.364,1.3701,1.3706,1.3711,1.3729,1.3736,1.3652,1.3652,1.3652,1.3652,0,1.3201,1.3244,1.3274,1.3326,1.3356,1.34,1.3426,1.3454,1.3464,1.3485,1.354,1.3575,1.3623,1.3639,1.365,1.3705,1.3699,1.3696,1.3681,1.3718,1.3735,1.3743,1.3653,1.3653,1.3652,1.3652,0,0,1.3251,1.3312,1.3323,1.3346,1.3394,1.3428,1.3472,1.3517,1.354,1.3577,1.3614,1.3674,1.367,1.3698,1.3712,1.3739,1.378,1.3732,1.3733,1.3738,1.3841,1.3842,1.385,1.3783,1.3784,1.3785,1.3837,0,1.3303,1.338,1.34,1.3466,1.3505,1.3515,1.3552,1.3586,1.3606,1.3642,1.3665,1.3706,1.37,1.3716,1.3744,1.3769,1.38,1.3766,1.3816,1.3817,1.3804,1.3859,1.3861,1.3908,1.3844,1.3845,1.3846,0,1.3374,1.3411,1.3481,1.3523,1.354,1.3574,1.3616,1.3651,1.3689,1.3702,1.3731,1.3742,1.3787,1.3771,1.3832,1.3808,1.383,1.3845,1.3848,1.3852,1.3833,1.3864,1.3924,1.393,1.3857,1.3856,1.3855,0,1.3401,1.3469,1.352,1.3539,1.3589,1.3613,1.3635,1.3671,1.3697,1.3734,1.3751,1.3793,1.3816,1.3849,1.387,1.3856,1.3929,1.3915,1.394,1.394,1.3955,1.3953,1.4017,1.3971,1.3971,1.3971,1.397,0,1.3456,1.3498,1.3532,1.3563,1.361,1.3631,1.3677,1.3699,1.3731,1.3766,1.3778,1.381,1.3837,1.3873,1.389,1.3937,1.3948,1.3959,1.3963,1.3957,1.3956,1.3971,1.3968,1.3972,1.3972,1.3972,1.3971,0,1.3494,1.3519,1.3574,1.3617,1.3628,1.3661,1.3697,1.3727,1.3747,1.3791,1.3803,1.3835,1.3878,1.3902,1.3956,1.3968,1.402,1.4023,1.4007,1.4008,1.4032,1.4029,1.4107,1.4118,1.4065,1.4066,1.4066,0,1.3527,1.3559,1.3605,1.3629,1.3651,1.369,1.3716,1.3738,1.3765,1.3809,1.3833,1.3876,1.3912,1.398,1.4008,1.4049,1.4052,1.4077,1.4058,1.4051,1.4051,1.4048,1.4051,1.4079,1.408,1.408,1.408,0,1.3582,1.3593,1.363,1.3671,1.3701,1.3735,1.3768,1.3787,1.3815,1.3844,1.3887,1.3915,1.3969,1.4011,1.4054,1.4077,1.4083,1.4086,1.4094,1.4088,1.4077,1.4082,1.4014,1.4084,1.4084,1.4083,1.4083,1.4083,1.3618,1.3647,1.3683,1.3723,1.375,1.3781,1.381,1.3834,1.3871,1.3916,1.3927,1.3972,1.4008,1.4066,1.409,1.4125,1.4121,1.4133,1.4135,1.4137,1.4137,1.4072,1.4133,1.4133,1.4133,1.4133,1.4133,0,1.3673,1.3696,1.3733,1.3779,1.381,1.3813,1.385,1.3876,1.3915,1.3948,1.3982,1.4031,1.4072,1.4103,1.4145,1.4167,1.4171,1.4177,1.4175,1.418,1.414,1.4128,1.4173,1.4173,1.4173,1.4173,1.4173,1.4173,1.3705,1.3752,1.3767,1.3828,1.3851,1.3895,1.3915,1.3943,1.3969,1.4023,1.4057,1.4077,1.4108,1.4152,1.4189,1.4197,1.4211,1.4217,1.4225,1.4187,1.4183,1.4179,1.4168,1.422,1.422,1.4262,1.4263,1.4263]},{"header":{"parameterUnit":"m.s-1","parameterCategory":1,"la1":30.2991,"la2":30.254,"lo1":-89.0895,"lo2":-89.0444,"dy":0.0017,"dx":0.0017,"nx":28,"ny":28,"refTime":"2024-05-26T09:00:00:Z","depth":0,"parameterNumber":3,"parameterNumberName":"V-component_of_WINDS"},"data":[0,0,0,0,0,0,0,0,0,0,0,0,0,0,0,0,0,0,0,0,0,0,0,0,0,0,0,0,0,0,0,0,0,0,0,0,0,0,0,0,0,0,0,0,0,0,0,0,0,0,0,0,0,0,0,0,0,0,5.1444,5.1444,0,5.1512,5.1513,5.1514,5.1473,5.1471,5.1469,5.1468,5.1531,5.1535,5.1538,0,0,0,0,0,0,0,0,0,0,0,0,0,5.1271,5.1274,5.1444,5.1445,5.1445,5.1512,5.1513,5.1514,5.1474,5.1471,5.1469,5.1467,5.153,5.1534,5.1539,0,0,0,0,0,0,0,0,0,0,0,0,0,5.1343,5.1275,5.1444,5.1433,5.1433,5.1512,5.1513,5.1514,5.1474,5.1471,5.1468,5.1466,5.1529,5.1534,5.1539,5.163,0,0,5.1555,5.1558,0,0,0,0,0,0,0,0,5.1339,5.1349,5.1434,5.1434,5.1434,5.1481,5.1475,5.1553,5.1475,5.1458,5.1467,5.1464,5.1517,5.1523,5.1542,5.1633,5.1635,5.1556,5.1559,5.1561,5.1563,0,0,0,0,0,0,0,5.1334,5.1346,5.1471,5.1435,5.1435,5.1423,5.143,5.149,5.1503,5.146,5.1457,5.1466,5.1516,5.1537,5.1543,5.1636,5.1556,5.156,5.1564,5.1566,5.1802,5.1805,0,0,0,0,0,0,5.1331,5.1342,5.1468,5.1473,5.1379,5.1429,5.1436,5.1469,5.1502,5.1504,5.1468,5.1464,5.1529,5.1537,5.1545,5.1651,5.1561,5.1566,5.1569,5.1799,5.1803,5.1806,0,0,0,0,0,0,5.1327,5.1342,5.1466,5.1407,5.1422,5.1435,5.1471,5.1472,5.1493,5.1509,5.151,5.1488,5.1527,5.1538,5.1609,5.1653,5.1568,5.1573,5.1795,5.18,5.1804,5.1866,0,0,0,0,0,0,5.1322,5.1341,5.1378,5.1408,5.1425,5.1531,5.1474,5.1475,5.1503,5.1497,5.1527,5.1529,5.1526,5.1601,5.1614,5.1659,5.1577,5.1791,5.1797,5.1803,5.186,5.1872,5.1882,0,0,0,0,0,5.1316,5.1391,5.138,5.1395,5.1471,5.1533,5.1543,5.1539,5.1506,5.1541,5.1552,5.1528,5.1647,5.1609,5.1623,5.167,5.1788,5.1796,5.1803,5.1855,5.187,5.1882,0,0,0,0,0,0,5.1364,5.1395,5.1383,5.147,5.15,5.1526,5.1571,5.1555,5.1593,5.1586,5.1578,5.1585,5.1659,5.1672,5.1629,5.1758,5.1712,5.1722,5.1747,5.1761,5.1772,5.1767,5.1582,0,0,0,0,0,5.1385,5.1435,5.1459,5.1534,5.1549,5.1558,5.1585,5.158,5.1609,5.162,5.1636,5.1663,5.1706,5.1734,5.1775,5.1862,5.1866,5.1901,5.1912,5.1921,5.193,5.1974,5.1989,5.1829,5.1829,5.1829,0,0,5.1428,5.1451,5.1483,5.1544,5.1566,5.1616,5.1568,5.1623,5.1659,5.1628,5.1696,5.1708,5.1738,5.1817,5.1852,5.183,5.1975,5.193,5.1938,5.1941,5.1983,5.1998,5.2011,5.1834,5.1833,5.1832,0,0,5.1532,5.1556,5.162,5.1643,5.1678,5.1683,5.1698,5.1728,5.1735,5.1804,5.1781,5.1822,5.1897,5.1919,5.194,5.2051,5.203,5.2064,5.2122,5.2166,5.2178,5.2189,5.2227,5.224,5.2073,5.2073,5.2073,0,5.158,5.1657,5.1654,5.1711,5.1737,5.1713,5.1776,5.1798,5.1843,5.1861,5.1835,5.1928,5.1947,5.2029,5.2056,5.2075,5.209,5.206,5.2177,5.2188,5.2198,5.2234,5.2248,5.2077,5.2076,5.2076,5.2076,0,5.1713,5.1767,5.1814,5.186,5.1891,5.1951,5.1955,5.1987,5.1979,5.1985,5.2054,5.2076,5.2119,5.2139,5.2131,5.222,5.2204,5.2178,5.2132,5.2217,5.225,5.2264,5.2082,5.2081,5.208,5.2079,0,0,5.1849,5.1893,5.191,5.193,5.1966,5.2006,5.2063,5.2108,5.2134,5.2166,5.2211,5.2275,5.2251,5.2275,5.2269,5.2308,5.2391,5.2276,5.2277,5.2295,5.2487,5.2505,5.2521,5.2378,5.2381,5.2383,5.2484,0,5.1953,5.2056,5.2054,5.2148,5.2195,5.2173,5.2222,5.2248,5.2256,5.2295,5.2303,5.2348,5.2314,5.2328,5.2365,5.2373,5.2429,5.2366,5.2418,5.242,5.241,5.2539,5.2558,5.2653,5.2497,5.2499,5.2501,0,5.2089,5.2126,5.2226,5.2253,5.2273,5.2318,5.2358,5.2397,5.2425,5.2427,5.2454,5.2442,5.2497,5.245,5.2525,5.2482,5.2503,5.251,5.2514,5.2517,5.2464,5.2543,5.2683,5.2696,5.2522,5.252,5.2519,0,5.2174,5.225,5.2319,5.2336,5.2371,5.2403,5.2419,5.2444,5.247,5.2505,5.2521,5.2561,5.2582,5.2611,5.2609,5.2576,5.2684,5.2638,5.2685,5.2685,5.2708,5.2706,5.2851,5.2725,5.2725,5.2724,5.2724,0,5.229,5.2351,5.2357,5.2399,5.2466,5.2463,5.2528,5.254,5.2563,5.2605,5.2588,5.2627,5.2622,5.2661,5.266,5.272,5.273,5.2732,5.273,5.2733,5.2732,5.2745,5.2737,5.2728,5.2727,5.2727,5.2726,0,5.2396,5.2404,5.2476,5.2504,5.2512,5.256,5.2582,5.262,5.2626,5.2679,5.2692,5.2701,5.2745,5.2747,5.2797,5.2796,5.2869,5.2862,5.2861,5.2858,5.2905,5.29,5.3061,5.3081,5.2945,5.2946,5.2947,0,5.2468,5.2515,5.2548,5.2575,5.2593,5.2638,5.2665,5.2664,5.2692,5.2727,5.276,5.2804,5.2838,5.291,5.292,5.2958,5.2949,5.3003,5.2955,5.2955,5.2947,5.2944,5.2947,5.3012,5.3013,5.3015,5.3016,0,5.2595,5.2596,5.2637,5.2679,5.2713,5.2745,5.2775,5.2798,5.2799,5.2832,5.2878,5.2905,5.2957,5.2999,5.3036,5.3049,5.3032,5.3031,5.3044,5.3045,5.3042,5.3042,5.2884,5.3027,5.3026,5.3025,5.3024,5.3024,5.2685,5.2725,5.2754,5.2799,5.2822,5.285,5.2887,5.2899,5.2938,5.2981,5.2978,5.3028,5.3053,5.3101,5.3118,5.3155,5.3136,5.3155,5.316,5.3164,5.3168,5.3038,5.3162,5.3162,5.3162,5.3161,5.3161,0,5.2809,5.2827,5.2869,5.2912,5.2947,5.293,5.2962,5.2992,5.3037,5.3063,5.3098,5.315,5.319,5.3204,5.3242,5.327,5.3263,5.328,5.3277,5.3279,5.3184,5.3168,5.3285,5.3285,5.3285,5.3285,5.3285,5.3285,5.2877,5.2943,5.2947,5.3023,5.3039,5.309,5.311,5.3134,5.3155,5.3215,5.3249,5.3258,5.3278,5.3318,5.3353,5.3356,5.337,5.339,5.3389,5.3299,5.3286,5.3274,5.326,5.3394,5.3394,5.3481,5.3482,5.3483]}]]